Reflectivity
-20 -20 -20 -20 -20 -20 -20 -20 -20 -20 -20 -20 -20 -20 -20 -20 -20 -20 -20 -20 -20 -14 7 -3 -20 2 2 -0 3 2 3 5 11 8 5 4 -16 -6 28 28 35 26 35
-20 -20 -20 -20 -20 -20 -20 -20 -20 -20 -20 -20 -20 -20 -20 -20 -20 -20 -20 -20 -14 -20 -10 -2 -20 -20 -2 6 9 -16 -20 -20 -10 3 5 -1 3 -9 17 20 23 28 31
-20 -20 -20 -20 -20 -20 -20 -20 -20 -20 -20 -20 -20 -20 -20 -20 -20 -20 -20 -20 -20 -20 -20 -8 -20 0 7 6 3 4 2 -17 -14 2 4 -6 -20 -7 25 19 38 33 27
-20 -20 -20 -20 -20 -20 -20 -20 -20 -20 -20 -20 -20 -20 -20 -20 -20 -20 -20 -20 -20 -20 -20 -20 0 -7 -1 8 9 6 2 3 -11 -14 -5 -20 -20 -3 22 29 14 37 3
-20 -20 -20 -20 -20 -20 -20 -20 -20 -20 -20 -20 -20 -20 -20 -20 -20 -20 -1 10 9 9 8 8 6 5 -1 11 9 -12 -20 -20 -1 -4 -18 -1 -20 -20 10 29 8 34 11
-20 -20 -20 -20 -20 -20 -20 -20 -20 -20 -20 -20 -20 -20 -20 -20 -5 -4 10 13 9 7 7 -20 -20 1 -20 11 13 14 18 6 1 -2 5 6 -20 -5 23 32 33 18 5
-20 -20 -20 -20 -20 -20 -20 -20 -20 -20 -20 -20 -20 -20 -20 -20 1 1 16 16 11 9 3 4 1 9 6 17 16 13 12 13 16 12 -8 -16 -18 -20 9 -7 14 23 17
-20 -20 -20 -20 -20 -20 -20 -20 -20 -20 -20 -20 -20 -20 -20 -12 2 6 6 14 12 5 5 6 5 -6 -20 -20 -20 -13 -20 -20 -20 -20 -0 4 -12 -20 -18 19 7 9 13
-20 -20 -20 -20 -20 -20 -20 -20 -20 -20 -20 -20 -20 -20 -20 -20 -13 4 2 10 4 -13 -20 -20 -20 -20 -20 -2 6 12 1 -6 1 -20 -20 -20 -10 -0 4 -1 30 24 23
-20 -20 -20 -20 -20 -20 -20 -20 -20 -20 -20 -20 -20 -20 -20 -20 -20 2 8 13 6 6 -5 2 -20 5 10 4 4 11 10 -20 -20 2 -0 -20 -20 -20 11 11 27 27 35
-20 -20 -20 -20 -20 -20 -20 -20 -20 -20 -20 -20 -20 -20 -20 -20 -20 -5 2 11 9 -15 -20 -20 -20 -20 -2 5 19 21 -12 -20 -20 0 -5 -20 -20 -20 -20 -2 16 28 34
-20 -20 -20 -20 -20 -20 -20 -20 -20 -20 -20 -20 -20 -20 -20 -20 -20 -14 1 6 12 15 6 -2 -9 -12 4 7 -3 -13 8 18 -10 -19 -18 -11 -20 -20 -20 -20 0 28 27
-20 -20 -20 -20 -20 -20 -20 -20 -20 -20 -20 -20 -20 -20 -20 -20 -20 -20 -20 -18 -3 1 -18 -18 3 6 7 8 7 3 1 7 30 -10 -20 -20 -19 -20 -20 -20 -20 -5 29
-20 -20 -20 -20 -17 -20 -20 -20 -20 -20 -20 -20 -11 -20 -20 -20 -20 -20 -17 -5 -19 -20 -19 -20 -20 -8 -3 7 9 -2 3 0 -4 10 -13 -20 -20 -20 -20 -20 -19 -15 21
-20 -20 -20 -20 -20 -20 -20 -20 -20 -20 -14 5 3 6 6 0 -16 13 13 16 15 17 13 1 -20 -19 -11 -11 -9 -13 -11 -6 6 2 -3 -18 -19 -20 -20 -20 -20 -12 12
-20 -20 -20 -20 -20 -20 -20 -20 -20 -20 -20 -15 -2 2 3 5 9 16 9 12 13 14 13 10 9 2 -12 -20 -18 -7 -19 2 -11 15 -13 3 -3 -20 -10 -6 -16 -17 -10
-20 -20 -20 -20 -20 -20 -20 -20 -20 -20 -20 -20 -20 -11 -2 -2 16 5 9 12 -2 11 3 3 3 9 7 -20 -18 -19 -20 -5 6 4 -3 1 -11 -20 -1 -4 -10 -13 8
-20 -20 -20 -20 -20 -20 -20 -20 -20 -20 -20 -20 -20 -20 -4 7 4 7 9 -5 -16 -13 2 1 -10 -20 2 -11 4 -12 -20 -15 -5 -5 8 -10 -11 -17 -11 -6 -10 -19 10
-20 -20 -15 -20 -20 -20 -20 -20 -20 -20 -20 -20 -20 -20 -20 8 -20 -6 -0 1 2 -1 -2 -3 -18 -20 -20 -20 -20 -20 13 -20 -3 5 -6 10 -7 -3 11 -11 -8 13 17
-20 -20 -7 -20 -20 -20 -20 -20 -20 -20 -20 -20 -20 -20 6 -20 -20 -20 -20 -10 -5 -12 -10 -16 -17 -19 -20 -20 -20 -20 1 8 -1 -4 -9 -5 -19 -19 -19 -18 -16 -10 2
-20 -20 -20 -20 -20 -20 -20 -20 -20 -20 -20 -20 -20 -20 6 -12 -20 -20 -4 3 8 -2 -11 -18 -16 -16 -19 -20 -20 -20 -20 -13 8 7 -4 -11 -20 -20 -20 -20 -15 -11 -18
-20 -20 -20 -20 -20 -20 -20 -20 -20 -20 -20 -20 -20 -20 -2 -20 -17 -20 -1 12 10 3 -14 -13 -16 -15 -16 -17 -19 -20 -7 0 3 18 4 -16 -20 -20 -20 -18 -14 -14 -8
-20 -20 -20 -20 -20 -20 -20 -20 -20 -20 -20 -20 -20 -20 -20 -20 -10 -7 6 14 13 -1 0 -3 -11 -17 -16 -16 -18 -18 -19 -2 10 19 -6 -11 -20 -20 -20 -20 -20 -15 -15
-20 -20 -20 -20 -20 -20 -20 -20 -20 -20 -20 -20 -20 -20 -20 -20 4 3 10 15 10 3 7 5 2 -12 -17 -18 -17 -18 -17 -13 3 1 -12 -20 -20 -20 -20 -19 -17 -15 -8
-20 -20 -20 -20 -20 -20 -20 -20 -20 -20 -20 -20 -20 -20 -20 -20 -8 -4 10 16 11 11 9 8 11 -4 -17 -20 -18 -19 -18 -17 -17 -0 4 -13 -20 -20 -20 -20 -13 10 10
-20 -20 -20 -20 -20 -20 -20 -20 -20 -20 -20 -20 -20 -20 -20 -20 -0 -10 4 15 13 4 15 12 11 -0 -16 -13 -18 -12 -3 -16 -15 -17 -20 -16 -4 -19 -18 -17 1 2 -17
Wind_Speed
5 6 8 8 9 10 10 11 12 13 13 14 14 15 15 15 14 13 14 14 14 14 12 12 14 12 9 9 8 8 9 8 9 9 7 8 12 9 11 5 5 5 6
5 7 8 9 10 10 11 12 13 14 14 14 15 15 15 15 15 14 15 14 15 15 15 14 14 9 12 10 7 10 9 9 8 12 9 8 9 10 9 6 5 5 4
6 8 10 10 10 11 12 13 14 14 15 15 15 15 15 15 15 15 15 15 15 15 15 14 14 12 12 9 9 8 8 7 8 8 8 7 7 6 8 3 3 5 5
7 9 9 11 11 12 13 13 14 14 15 15 15 16 16 16 16 15 15 15 15 14 14 14 14 13 13 12 9 9 9 7 7 8 8 7 6 5 4 4 2 3 3
8 9 10 11 12 12 13 14 14 14 14 15 16 15 16 14 12 14 14 14 14 15 14 14 13 15 20 17 9 9 9 7 6 7 7 7 6 5 4 2 2 2 5
8 9 10 11 12 13 14 14 15 15 15 15 15 16 16 12 21 24 19 14 15 15 14 14 12 16 16 20 19 17 12 7 9 6 6 6 6 6 2 2 1 2 3
8 9 10 11 13 13 14 14 15 15 15 15 15 15 16 16 24 23 23 12 12 13 13 12 11 9 12 9 13 16 13 14 13 9 8 7 7 6 4 6 3 3 3
8 10 11 12 13 14 14 14 14 13 14 14 15 15 15 14 24 24 23 13 11 13 13 13 12 12 12 12 10 10 10 10 10 7 7 7 7 8 1 3 5 2 3
8 10 12 13 14 15 15 15 14 13 13 14 15 15 15 16 23 23 18 11 11 12 12 12 12 12 16 18 12 11 10 9 10 14 14 12 10 13 6 3 1 1 2
10 12 12 13 14 14 15 14 13 13 15 13 15 15 18 16 21 22 17 9 11 9 10 10 17 15 18 18 12 10 9 10 9 9 8 9 10 8 8 6 4 2 2
10 11 12 13 14 13 13 13 13 13 14 14 16 14 14 14 14 21 20 10 9 9 9 8 8 16 17 17 17 10 13 10 10 8 6 5 5 6 4 2 3 2 1
10 11 12 12 11 11 13 13 13 12 12 13 13 12 10 12 17 17 20 19 17 9 9 8 9 16 17 18 14 15 14 16 6 7 6 6 4 5 4 3 4 3 1
10 11 11 13 13 13 12 13 11 11 10 11 11 11 11 11 10 19 20 18 17 11 8 12 18 18 18 15 18 19 17 6 4 8 7 6 6 5 4 3 4 6 5
9 10 10 11 13 11 10 10 10 10 11 11 11 11 11 11 10 9 9 10 16 13 14 11 12 14 16 14 12 11 7 5 6 6 6 6 4 4 5 5 3 4 3
8 9 10 10 10 11 10 10 10 10 12 12 11 11 11 11 11 22 20 11 9 9 11 8 8 7 8 7 7 7 6 6 6 7 6 6 5 5 5 6 4 5 3
9 9 9 9 9 9 9 11 18 20 24 24 23 18 11 20 26 26 24 22 21 19 8 7 7 8 8 7 7 7 6 9 7 5 6 6 6 6 5 5 6 6 7
8 10 9 11 9 9 9 10 11 17 23 22 24 24 24 24 25 25 23 22 17 14 6 6 6 6 6 6 6 8 7 7 6 5 7 6 6 6 8 6 6 7 7
9 16 9 8 9 9 9 10 9 10 12 13 19 22 23 26 25 23 23 17 8 8 6 6 6 6 6 7 6 7 7 6 8 7 5 7 7 7 6 7 7 8 8
9 8 9 8 8 11 9 9 9 10 11 11 13 16 20 25 23 21 20 8 8 8 7 7 6 5 5 5 5 5 5 8 7 6 8 7 7 7 7 7 7 13 13
7 15 13 8 8 8 8 9 10 10 11 11 11 12 12 15 11 11 9 8 7 7 7 7 6 5 5 5 6 6 7 6 8 8 7 8 8 7 7 8 8 9 8
6 7 15 8 7 8 8 9 10 10 10 11 11 13 29 12 11 10 10 9 8 7 7 7 6 6 4 4 6 6 6 7 7 8 8 8 8 8 7 8 8 8 10
6 7 7 7 8 9 10 9 9 10 11 12 12 12 26 10 10 10 10 10 9 8 6 6 6 5 4 3 4 6 7 7 7 9 8 9 8 9 9 8 9 10 10
5 7 7 7 7 13 9 9 9 10 11 12 12 11 11 11 11 11 11 10 9 9 8 5 5 4 4 1 3 4 5 5 6 8 10 9 9 9 10 10 10 10 10
5 6 6 7 7 9 9 10 9 14 13 11 12 11 11 11 11 12 11 10 10 10 9 7 4 5 4 2 2 2 3 4 5 9 13 11 10 13 10 10 10 12 12
4 5 6 6 8 9 10 10 10 11 11 11 11 11 11 11 11 11 10 10 10 10 11 10 8 6 5 4 3 4 7 12 8 9 8 11 13 15 12 10 12 12 14
4 5 5 6 7 8 9 9 10 10 11 11 11 12 11 11 10 10 10 10 10 10 12 9 11 14 10 5 3 6 11 14 12 15 9 10 11 11 11 14 17 12 15
Wind_Direction
330 315 314 316 317 314 306 304 300 302 303 301 298 299 298 299 300 299 297 295 290 292 290 282 284 283 279 278 275 274 274 276 288 301 306 315 313 325 323 347 357 13 13
317 319 322 320 316 307 304 301 301 300 299 296 298 296 297 298 299 297 297 295 291 290 288 286 282 282 281 274 271 281 275 278 281 287 300 307 319 323 334 330 4 9 36
329 334 330 319 308 304 302 302 302 300 298 299 299 298 299 300 299 296 293 291 288 283 285 283 280 280 279 276 273 275 276 275 276 281 297 305 305 314 329 332 342 352 25
343 332 314 304 303 301 301 301 301 302 302 301 300 299 299 300 297 298 293 285 279 277 277 275 274 273 273 276 269 268 271 271 271 273 281 285 293 299 291 294 282 37 22
330 314 302 302 303 304 305 306 305 307 304 303 304 303 302 300 297 296 288 282 281 279 277 274 272 267 267 263 258 253 253 260 265 262 267 274 288 301 300 289 342 278 37
309 301 306 309 312 311 309 311 310 310 309 308 307 304 303 298 298 299 297 285 282 278 277 273 271 274 276 277 275 270 256 237 242 266 284 265 282 305 331 290 248 55 41
302 310 314 315 314 311 313 313 313 313 311 309 307 302 299 295 297 298 298 297 296 291 289 290 284 280 287 279 264 269 279 280 269 246 259 272 278 285 352 352 21 335 116
316 315 318 319 314 315 316 314 312 312 311 307 304 299 295 293 300 304 301 295 294 290 284 279 275 273 270 271 269 269 267 266 263 265 258 263 272 278 135 3 355 66 66
325 321 320 319 315 318 316 311 310 310 309 305 301 301 299 296 298 306 309 296 290 285 277 271 269 268 267 266 262 260 257 262 260 249 247 251 254 273 271 127 336 223 71
328 318 317 317 315 313 308 307 309 308 305 306 304 301 297 298 299 305 307 292 289 287 282 267 265 269 257 256 253 254 243 248 246 249 237 246 254 262 276 208 165 240 127
317 314 319 317 313 305 303 306 308 308 309 304 303 301 296 292 296 305 306 297 286 280 271 267 260 264 271 268 255 230 230 232 238 236 237 222 213 238 254 196 166 146 168
314 319 318 313 311 308 308 309 314 313 310 306 304 304 303 300 302 306 304 302 297 293 287 278 266 265 267 265 266 265 257 224 206 219 220 219 206 209 218 193 183 190 111
321 321 317 314 313 311 318 317 316 317 310 307 308 309 313 309 302 304 303 294 285 278 269 268 270 266 261 262 262 254 254 250 209 193 213 210 194 191 191 111 83 91 66
317 320 318 315 318 323 319 316 315 314 311 304 311 311 309 309 310 308 294 278 271 266 261 262 260 258 261 258 255 252 245 232 218 213 195 198 186 167 175 165 139 135 98
326 322 322 312 324 320 318 316 314 306 307 315 314 308 311 313 309 312 317 313 306 282 259 232 230 230 235 240 243 228 213 215 244 195 190 183 186 173 168 167 143 145 140
335 333 316 328 325 319 323 315 316 321 320 322 322 324 317 313 318 323 327 323 318 313 289 264 245 227 224 218 232 222 207 221 209 189 176 181 176 170 161 159 157 166 151
335 316 325 328 322 326 324 320 320 322 325 328 332 331 330 327 332 337 334 332 334 323 300 288 276 245 208 205 220 220 201 209 186 192 180 174 172 169 161 164 161 156 147
326 332 329 322 326 323 320 317 314 318 323 325 327 329 333 336 346 342 341 340 325 325 307 299 286 272 260 216 212 204 196 180 200 188 180 174 179 174 164 164 162 155 146
336 333 327 329 326 326 318 317 316 323 321 319 321 330 336 343 344 343 346 331 324 319 314 308 294 278 255 237 223 217 199 194 189 170 171 179 165 157 162 156 156 156 148
335 343 346 334 323 326 325 322 330 327 325 323 326 332 327 347 340 339 338 330 325 316 313 310 305 289 258 224 214 211 208 196 182 178 179 176 170 158 152 149 151 150 148
333 331 342 332 332 327 319 336 327 326 325 325 327 331 347 348 331 332 332 331 323 320 316 311 306 298 281 222 203 200 199 198 193 180 174 167 161 152 146 146 138 130 128
339 332 329 332 330 323 343 331 330 327 328 327 327 333 344 343 336 332 335 333 330 328 321 314 308 309 303 239 200 195 196 192 186 178 164 161 155 144 138 135 132 132 135
340 337 337 338 340 341 337 338 334 332 332 328 327 335 339 339 339 338 339 338 337 342 336 327 326 331 336 329 199 191 185 187 174 156 152 150 145 141 139 138 139 136 140
347 343 340 337 342 349 338 339 333 337 338 330 331 340 340 339 340 341 342 341 343 347 349 342 340 356 352 17 83 115 120 126 140 154 148 148 145 143 138 138 142 142 139
354 351 350 340 341 338 335 336 336 334 334 335 333 339 341 339 343 343 342 345 346 350 356 356 3 11 21 42 83 116 135 126 121 126 134 139 141 141 140 135 136 136 138
0 353 351 339 348 337 338 335 335 336 337 335 336 339 343 341 343 344 345 352 353 355 358 0 7 17 21 39 77 132 139 134 128 125 123 130 134 133 134 136 139 137 137